| time (UTC) | temp C | wind direction | speed KPH | gust KPH | rain 1hr cm | rain 24hr cm | rain mn cm | humidity % | barometer mb |
| 20260507200516 | 15 | 0.0 | 0.0 | 0.00 | 0.00 | 0.00 | 76 | 1011.0 | |
| 20260507195517 | 15 | 127 | 0.0 | 1.6 | 0.00 | 0.00 | 0.00 | 75 | 1010.9 |
| 20260507194516 | 16 | 127 | 0.0 | 1.6 | 0.00 | 0.00 | 0.00 | 75 | 1010.9 |
| 20260507193516 | 16 | 127 | 0.0 | 1.6 | 0.00 | 0.00 | 0.00 | 73 | 1010.8 |
| 20260507192516 | 16 | 127 | 0.0 | 1.6 | 0.00 | 0.00 | 0.00 | 70 | 1010.6 |
| 20260507191536 | 17 | 130 | 0.0 | 4.8 | 0.00 | 0.00 | 0.00 | 67 | 1010.5 |
| 20260507190516 | 17 | 140 | 0.0 | 6.4 | 0.00 | 0.00 | 0.00 | 66 | 1010.5 |
| 20260507185539 | 17 | 117 | 3.2 | 8.0 | 0.00 | 0.00 | 0.00 | 65 | 1010.4 |
| 20260507184516 | 17 | 137 | 1.6 | 6.4 | 0.00 | 0.00 | 0.00 | 66 | 1010.2 |
| 20260507183516 | 18 | 0.0 | 1.6 | 0.00 | 0.00 | 0.00 | 65 | 1010.1 | |
| 20260507182516 | 18 | 91 | 0.0 | 3.2 | 0.00 | 0.00 | 0.00 | 63 | 1010.0 |
| 20260507181517 | 18 | 116 | 1.6 | 6.4 | 0.00 | 0.00 | 0.00 | 63 | 1010.0 |
| 20260507180516 | 19 | 84 | 1.6 | 6.4 | 0.00 | 0.00 | 0.00 | 61 | 1009.8 |
| 20260507175537 | 20 | 103 | 1.6 | 4.8 | 0.00 | 0.00 | 0.00 | 60 | 1009.7 |
| 20260507174517 | 20 | 83 | 1.6 | 8.0 | 0.00 | 0.00 | 0.00 | 57 | 1009.6 |
| 20260507173516 | 20 | 74 | 1.6 | 6.4 | 0.00 | 0.00 | 0.00 | 58 | 1009.5 |
| 20260507172516 | 21 | 77 | 3.2 | 9.7 | 0.00 | 0.00 | 0.00 | 57 | 1009.4 |
| 20260507171537 | 21 | 75 | 4.8 | 11.3 | 0.00 | 0.00 | 0.00 | 56 | 1009.3 |
| 20260507170516 | 21 | 87 | 4.8 | 9.7 | 0.00 | 0.00 | 0.00 | 56 | 1009.4 |
| 20260507165516 | 21 | 87 | 4.8 | 12.9 | 0.00 | 0.00 | 0.00 | 55 | 1009.4 |
| 20260507164516 | 21 | 77 | 4.8 | 14.5 | 0.00 | 0.00 | 0.00 | 53 | 1009.3 |
| 20260507163518 | 21 | 71 | 6.4 | 11.3 | 0.00 | 0.00 | 0.00 | 50 | 1009.2 |
| 20260507162518 | 21 | 82 | 3.2 | 12.9 | 0.00 | 0.00 | 0.00 | 49 | 1009.2 |
| 20260507161518 | 22 | 86 | 3.2 | 11.3 | 0.00 | 0.00 | 0.00 | 48 | 1009.3 |
| 20260507160518 | 22 | 64 | 6.4 | 12.9 | 0.00 | 0.00 | 0.00 | 49 | 1009.3 |
| 20260507155518 | 22 | 74 | 3.2 | 9.7 | 0.00 | 0.00 | 0.00 | 49 | 1009.4 |
| 20260507154538 | 21 | 87 | 6.4 | 12.9 | 0.00 | 0.00 | 0.00 | 50 | 1009.4 |
| 20260507153519 | 21 | 84 | 4.8 | 8.0 | 0.00 | 0.00 | 0.00 | 51 | 1009.4 |
| 20260507152518 | 21 | 85 | 3.2 | 9.7 | 0.00 | 0.00 | 0.00 | 51 | 1009.6 |
| 20260507151539 | 21 | 72 | 3.2 | 8.0 | 0.00 | 0.00 | 0.00 | 51 | 1009.7 |
| 20260507150518 | 21 | 69 | 1.6 | 14.5 | 0.00 | 0.00 | 0.00 | 51 | 1009.7 |
| 20260507145519 | 22 | 76 | 6.4 | 12.9 | 0.00 | 0.00 | 0.00 | 50 | 1009.7 |
| 20260507144518 | 22 | 83 | 4.8 | 14.5 | 0.00 | 0.00 | 0.00 | 48 | 1009.7 |
| 20260507143518 | 23 | 60 | 3.2 | 6.4 | 0.00 | 0.00 | 0.00 | 47 | 1009.7 |
| 20260507142518 | 22 | 60 | 3.2 | 9.7 | 0.00 | 0.00 | 0.00 | 48 | 1009.7 |
| 20260507141518 | 21 | 131 | 1.6 | 14.5 | 0.00 | 0.00 | 0.00 | 49 | 1009.7 |
| 20260507140517 | 22 | 81 | 6.4 | 11.3 | 0.00 | 0.00 | 0.00 | 43 | 1009.7 |
| 20260507135518 | 23 | 80 | 3.2 | 8.0 | 0.00 | 0.00 | 0.00 | 43 | 1009.7 |
| 20260507134517 | 22 | 60 | 1.6 | 11.3 | 0.00 | 0.00 | 0.00 | 43 | 1009.7 |
| 20260507133518 | 22 | 47 | 3.2 | 8.0 | 0.00 | 0.00 | 0.00 | 43 | 1009.7 |
| 20260507132538 | 22 | 69 | 3.2 | 6.4 | 0.00 | 0.00 | 0.00 | 41 | 1009.8 |
| 20260507131518 | 22 | 95 | 4.8 | 9.7 | 0.00 | 0.00 | 0.00 | 40 | 1010.0 |
| 20260507130518 | 22 | 357 | 1.6 | 4.8 | 0.00 | 0.00 | 0.00 | 42 | 1009.9 |
| 20260507125517 | 22 | 253 | 1.6 | 4.8 | 0.00 | 0.00 | 0.00 | 43 | 1010.0 |
| 20260507124540 | 22 | 117 | 4.8 | 12.9 | 0.00 | 0.00 | 0.00 | 41 | 1010.0 |
| 20260507123519 | 22 | 29 | 3.2 | 6.4 | 0.00 | 0.00 | 0.00 | 41 | 1010.1 |
| 20260507122518 | 22 | 81 | 6.4 | 11.3 | 0.00 | 0.00 | 0.00 | 40 | 1010.2 |
| 20260507121517 | 22 | 72 | 4.8 | 12.9 | 0.00 | 0.00 | 0.00 | 41 | 1010.2 |
| 20260507120518 | 21 | 41 | 4.8 | 11.3 | 0.00 | 0.00 | 0.00 | 43 | 1010.3 |
| 20260507115517 | 21 | 143 | 3.2 | 9.7 | 0.00 | 0.00 | 0.00 | 46 | 1010.3 |
| 20260507114520 | 21 | 80 | 3.2 | 8.0 | 0.00 | 0.00 | 0.00 | 47 | 1010.4 |
| 20260507113517 | 21 | 40 | 3.2 | 8.0 | 0.00 | 0.00 | 0.00 | 46 | 1010.5 |
| 20260507112518 | 21 | 312 | 3.2 | 11.3 | 0.00 | 0.00 | 0.00 | 46 | 1010.5 |
| 20260507111517 | 21 | 349 | 4.8 | 8.0 | 0.00 | 0.00 | 0.00 | 47 | 1010.6 |
| 20260507110517 | 21 | 41 | 4.8 | 11.3 | 0.00 | 0.00 | 0.00 | 48 | 1010.7 |
| 20260507105517 | 21 | 348 | 3.2 | 11.3 | 0.00 | 0.00 | 0.00 | 47 | 1010.8 |
| 20260507104517 | 21 | 84 | 3.2 | 9.7 | 0.00 | 0.00 | 0.00 | 47 | 1010.8 |
| 20260507103540 | 21 | 5 | 1.6 | 4.8 | 0.00 | 0.00 | 0.00 | 47 | 1010.9 |
| 20260507102518 | 21 | 359 | 1.6 | 6.4 | 0.00 | 0.00 | 0.00 | 48 | 1010.9 |
| 20260507101539 | 21 | 55 | 1.6 | 8.0 | 0.00 | 0.00 | 0.00 | 48 | 1011.0 |
| 20260507100538 | 21 | 314 | 1.6 | 4.8 | 0.00 | 0.00 | 0.00 | 49 | 1011.0 |
| 20260507095520 | 20 | 268 | 0.0 | 6.4 | 0.00 | 0.00 | 0.00 | 51 | 1011.1 |
| 20260507094518 | 20 | 15 | 1.6 | 9.7 | 0.00 | 0.00 | 0.00 | 51 | 1011.1 |
| 20260507093518 | 20 | 15 | 3.2 | 6.4 | 0.00 | 0.00 | 0.00 | 49 | 1011.2 |
| 20260507092518 | 19 | 213 | 0.0 | 4.8 | 0.00 | 0.00 | 0.00 | 52 | 1011.2 |
| 20260507091517 | 19 | 20 | 3.2 | 6.4 | 0.00 | 0.00 | 0.00 | 51 | 1011.2 |
| 20260507090519 | 20 | 11 | 3.2 | 6.4 | 0.00 | 0.00 | 0.00 | 50 | 1011.2 |
| 20260507090253 | 20 | 10 | 4.8 | 6.4 | 0.00 | 0.00 | 0.00 | 50 | 1011.2 |
| 20260507085517 | 18 | 14 | 1.6 | 6.4 | 0.00 | 0.00 | 0.00 | 52 | 1011.1 |
| 20260507084517 | 18 | 359 | 3.2 | 9.7 | 0.00 | 0.00 | 0.00 | 53 | 1011.0 |
| 20260507083516 | 18 | 234 | 1.6 | 6.4 | 0.00 | 0.00 | 0.00 | 52 | 1011.0 |
| 20260507082517 | 18 | 13 | 3.2 | 6.4 | 0.00 | 0.00 | 0.00 | 54 | 1010.9 |
| 20260507081516 | 18 | 44 | 1.6 | 4.8 | 0.00 | 0.00 | 0.00 | 56 | 1010.9 |
| 20260507080517 | 18 | 271 | 0.0 | 1.6 | 0.00 | 0.00 | 0.00 | 58 | 1010.8 |
| 20260507075537 | 18 | 271 | 0.0 | 1.6 | 0.00 | 0.00 | 0.00 | 54 | 1010.8 |
| 20260507074516 | 18 | 271 | 0.0 | 1.6 | 0.00 | 0.00 | 0.00 | 56 | 1010.8 |
| 20260507073516 | 17 | 271 | 0.0 | 3.2 | 0.00 | 0.00 | 0.00 | 59 | 1010.8 |
| 20260507072517 | 17 | 252 | 0.0 | 1.6 | 0.00 | 0.00 | 0.00 | 60 | 1010.7 |
| 20260507071516 | 17 | 251 | 0.0 | 1.6 | 0.00 | 0.00 | 0.00 | 62 | 1010.7 |
| 20260507070516 | 16 | 233 | 0.0 | 1.6 | 0.00 | 0.00 | 0.00 | 65 | 1010.5 |
| 20260507065619 | 16 | 233 | 1.6 | 3.2 | 0.00 | 0.00 | 0.00 | 66 | 1010.5 |
| 20260507064516 | 16 | 262 | 0.0 | 1.6 | 0.00 | 0.00 | 0.00 | 67 | 1010.5 |
| 20260507063517 | 16 | 258 | 0.0 | 3.2 | 0.00 | 0.00 | 0.00 | 66 | 1010.4 |
| 20260507062517 | 15 | 271 | 0.0 | 1.6 | 0.00 | 0.00 | 0.00 | 68 | 1010.2 |
| 20260507061517 | 15 | 243 | 1.6 | 3.2 | 0.00 | 0.00 | 0.00 | 66 | 1010.1 |
| 20260507060516 | 14 | 236 | 1.6 | 3.2 | 0.00 | 0.00 | 0.00 | 71 | 1010.0 |
| 20260507055517 | 14 | 252 | 1.6 | 1.6 | 0.00 | 0.00 | 0.00 | 73 | 1010.0 |
| 20260507054516 | 13 | 0.0 | 1.6 | 0.00 | 0.00 | 0.00 | 73 | 1009.9 | |
| 20260507053516 | 13 | 252 | 0.0 | 3.2 | 0.00 | 0.00 | 0.00 | 72 | 1009.8 |
| 20260507052518 | 12 | 227 | 1.6 | 3.2 | 0.00 | 0.00 | 0.00 | 78 | 1009.7 |
| 20260507051518 | 11 | 258 | 1.6 | 3.2 | 0.00 | 0.00 | 0.00 | 80 | 1009.6 |
| 20260507050519 | 11 | 238 | 0.0 | 3.2 | 0.00 | 0.00 | 0.00 | 81 | 1009.5 |
| 20260507045519 | 11 | 236 | 0.0 | 1.6 | 0.00 | 0.00 | 0.00 | 81 | 1009.5 |
| 20260507044522 | 11 | 236 | 1.6 | 1.6 | 0.00 | 0.00 | 0.00 | 81 | 1009.3 |
| 20260507043518 | 11 | 236 | 0.0 | 1.6 | 0.00 | 0.00 | 0.00 | 84 | 1009.2 |
| 20260507042518 | 11 | 236 | 0.0 | 1.6 | 0.00 | 0.00 | 0.00 | 82 | 1009.1 |
| 20260507041517 | 11 | 236 | 0.0 | 3.2 | 0.00 | 0.00 | 0.00 | 81 | 1009.1 |
| 20260507040538 | 11 | 253 | 1.6 | 1.6 | 0.00 | 0.00 | 0.00 | 79 | 1009.0 |
| 20260507035539 | 11 | 242 | 1.6 | 3.2 | 0.00 | 0.00 | 0.00 | 79 | 1008.9 |
| 20260507034518 | 11 | 237 | 1.6 | 3.2 | 0.00 | 0.00 | 0.00 | 82 | 1008.8 |
| 20260507033518 | 11 | 0.0 | 1.6 | 0.00 | 0.00 | 0.00 | 80 | 1008.8 | |
| 20260507032519 | 12 | 257 | 0.0 | 1.6 | 0.00 | 0.00 | 0.00 | 77 | 1008.8 |
| 20260507031518 | 12 | 233 | 1.6 | 4.8 | 0.00 | 0.00 | 0.00 | 76 | 1008.7 |
| 20260507030538 | 12 | 235 | 1.6 | 3.2 | 0.00 | 0.00 | 0.00 | 77 | 1008.8 |
| 20260507025519 | 12 | 268 | 0.0 | 3.2 | 0.00 | 0.00 | 0.00 | 76 | 1008.8 |
| 20260507024538 | 12 | 221 | 1.6 | 3.2 | 0.00 | 0.00 | 0.00 | 77 | 1008.7 |
| 20260507023518 | 12 | 221 | 1.6 | 3.2 | 0.00 | 0.00 | 0.00 | 77 | 1008.7 |
| 20260507022518 | 12 | 259 | 0.0 | 1.6 | 0.00 | 0.00 | 0.00 | 76 | 1008.6 |
| 20260507021518 | 13 | 244 | 0.0 | 9.7 | 0.00 | 0.00 | 0.00 | 73 | 1008.6 |
| 20260507020518 | 13 | 241 | 1.6 | 4.8 | 0.00 | 0.00 | 0.00 | 73 | 1008.5 |
| 20260507015538 | 13 | 243 | 1.6 | 8.0 | 0.00 | 0.00 | 0.00 | 75 | 1008.6 |
| 20260507014519 | 12 | 225 | 4.8 | 6.4 | 0.00 | 0.00 | 0.00 | 79 | 1008.5 |
| 20260507013518 | 12 | 242 | 0.0 | 3.2 | 0.00 | 0.00 | 0.00 | 78 | 1008.4 |
| 20260507012518 | 12 | 236 | 1.6 | 6.4 | 0.00 | 0.00 | 0.00 | 79 | 1008.3 |
| 20260507011519 | 12 | 230 | 4.8 | 6.4 | 0.00 | 0.00 | 0.00 | 80 | 1008.3 |
| 20260507010538 | 12 | 256 | 0.0 | 1.6 | 0.00 | 0.00 | 0.00 | 80 | 1008.3 |
| 20260507005518 | 13 | 261 | 0.0 | 8.0 | 0.00 | 0.00 | 0.00 | 77 | 1008.3 |
| 20260507004519 | 13 | 230 | 1.6 | 6.4 | 0.00 | 0.00 | 0.00 | 74 | 1008.3 |
| 20260507003518 | 14 | 229 | 3.2 | 4.8 | 0.00 | 0.00 | 0.00 | 69 | 1008.4 |
| 20260507002539 | 13 | 224 | 3.2 | 4.8 | 0.00 | 0.00 | 0.00 | 72 | 1008.5 |
| 20260507001517 | 13 | 239 | 1.6 | 3.2 | 0.00 | 0.00 | 0.00 | 70 | 1008.6 |
| 20260507000518 | 14 | 240 | 1.6 | 3.2 | 0.00 | 0.00 | 0.00 | 70 | 1008.6 |
| 20260506235517 | 14 | 235 | 1.6 | 3.2 | 0.00 | 0.00 | 0.00 | 70 | 1008.7 |
| 20260506234620 | 14 | 230 | 1.6 | 3.2 | 0.00 | 0.00 | 0.00 | 70 | 1008.6 |
| 20260506233517 | 13 | 239 | 1.6 | 4.8 | 0.00 | 0.00 | 0.00 | 70 | 1008.6 |
| 20260506232518 | 13 | 242 | 0.0 | 3.2 | 0.00 | 0.00 | 0.00 | 72 | 1008.7 |
| 20260506231538 | 14 | 265 | 0.0 | 3.2 | 0.00 | 0.00 | 0.00 | 68 | 1008.8 |
| 20260506230518 | 15 | 225 | 0.0 | 4.8 | 0.00 | 0.00 | 0.00 | 66 | 1008.8 |
| 20260506225518 | 15 | 227 | 3.2 | 6.4 | 0.00 | 0.00 | 0.00 | 66 | 1008.8 |
| 20260506224518 | 14 | 230 | 4.8 | 6.4 | 0.00 | 0.00 | 0.00 | 67 | 1008.7 |
| 20260506223538 | 14 | 230 | 3.2 | 4.8 | 0.00 | 0.00 | 0.00 | 69 | 1008.6 |
| 20260506222518 | 14 | 228 | 3.2 | 4.8 | 0.00 | 0.00 | 0.00 | 69 | 1008.5 |
| 20260506221518 | 14 | 237 | 1.6 | 3.2 | 0.00 | 0.00 | 0.00 | 69 | 1008.4 |
| 20260506220518 | 15 | 258 | 1.6 | 4.8 | 0.00 | 0.00 | 0.00 | 66 | 1008.5 |
| 20260506215520 | 16 | 226 | 3.2 | 8.0 | 0.00 | 0.00 | 0.00 | 60 | 1008.4 |
| 20260506214520 | 16 | 218 | 6.4 | 8.0 | 0.00 | 0.00 | 0.00 | 60 | 1008.4 |
| 20260506213518 | 16 | 218 | 4.8 | 8.0 | 0.00 | 0.00 | 0.00 | 61 | 1008.3 |
| 20260506212518 | 15 | 223 | 4.8 | 8.0 | 0.00 | 0.00 | 0.00 | 64 | 1008.3 |
| 20260506211518 | 15 | 234 | 1.6 | 4.8 | 0.00 | 0.00 | 0.00 | 65 | 1008.4 |
| 20260506210519 | 16 | 221 | 3.2 | 9.7 | 0.00 | 0.00 | 0.00 | 58 | 1008.3 |
| 20260506205618 | 16 | 219 | 6.4 | 11.3 | 0.00 | 0.00 | 0.00 | 57 | 1008.1 |
| 20260506204518 | 16 | 218 | 6.4 | 11.3 | 0.00 | 0.00 | 0.00 | 57 | 1008.0 |
| 20260506203517 | 16 | 217 | 6.4 | 9.7 | 0.00 | 0.00 | 0.00 | 57 | 1008.1 |
| 20260506202518 | 16 | 222 | 4.8 | 8.0 | 0.00 | 0.00 | 0.00 | 57 | 1008.0 |
| 20260506201538 | 16 | 227 | 4.8 | 6.4 | 0.00 | 0.00 | 0.00 | 56 | 1007.8 |